﻿測定場所 (Monitoring sites),日付 (Measurement date),時間 (Measurement time),線量率 最大値 (max) μGy/h,線量率 最小値 (min) μGy/h,線量率 平均値 (average) μGy/h,
江東 (Koto),2013-05-26,23:01～24:00,0.0453,0.0393,0.0414,
江東 (Koto),2013-05-26,22:01～23:00,0.0460,0.0392,0.0415,
江東 (Koto),2013-05-26,21:01～22:00,0.0439,0.0392,0.0416,
江東 (Koto),2013-05-26,20:01～21:00,0.0442,0.0385,0.0414,
江東 (Koto),2013-05-26,19:01～20:00,0.0440,0.0388,0.0413,
江東 (Koto),2013-05-26,18:01～19:00,0.0436,0.0391,0.0413,
江東 (Koto),2013-05-26,17:01～18:00,0.0440,0.0389,0.0415,
江東 (Koto),2013-05-26,16:01～17:00,0.0443,0.0391,0.0412,
江東 (Koto),2013-05-26,15:01～16:00,0.0435,0.0391,0.0414,
江東 (Koto),2013-05-26,14:01～15:00,0.0439,0.0398,0.0414,
江東 (Koto),2013-05-26,13:01～14:00,0.0448,0.0388,0.0413,
江東 (Koto),2013-05-26,12:01～13:00,0.0437,0.0387,0.0413,
江東 (Koto),2013-05-26,11:01～12:00,0.0458,0.0391,0.0414,
江東 (Koto),2013-05-26,10:01～11:00,0.0441,0.0379,0.0414,
江東 (Koto),2013-05-26,09:01～10:00,0.0445,0.0393,0.0415,
江東 (Koto),2013-05-26,08:01～09:00,0.0446,0.0389,0.0418,
江東 (Koto),2013-05-26,07:01～08:00,0.0440,0.0391,0.0416,
江東 (Koto),2013-05-26,06:01～07:00,0.0442,0.0391,0.0416,
江東 (Koto),2013-05-26,05:01～06:00,0.0445,0.0390,0.0414,
江東 (Koto),2013-05-26,04:01～05:00,0.0440,0.0389,0.0413,
江東 (Koto),2013-05-26,03:01～04:00,0.0446,0.0392,0.0415,
江東 (Koto),2013-05-26,02:01～03:00,0.0449,0.0384,0.0417,
江東 (Koto),2013-05-26,01:01～02:00,0.0435,0.0395,0.0417,
江東 (Koto),2013-05-26,00:01～01:00,0.0442,0.0394,0.0415,
江東 (Koto),2013-05-25,23:01～24:00,0.0439,0.0371,0.0410,
江東 (Koto),2013-05-25,22:01～23:00,0.0449,0.0385,0.0415,
江東 (Koto),2013-05-25,21:01～22:00,0.0442,0.0391,0.0416,
江東 (Koto),2013-05-25,20:01～21:00,0.0433,0.0387,0.0414,
江東 (Koto),2013-05-25,19:01～20:00,0.0437,0.0393,0.0412,
江東 (Koto),2013-05-25,18:01～19:00,0.0440,0.0392,0.0415,
江東 (Koto),2013-05-25,17:01～18:00,0.0435,0.0386,0.0411,
江東 (Koto),2013-05-25,16:01～17:00,0.0432,0.0393,0.0414,
江東 (Koto),2013-05-25,15:01～16:00,0.0438,0.0386,0.0418,
江東 (Koto),2013-05-25,14:01～15:00,0.0445,0.0395,0.0415,
江東 (Koto),2013-05-25,13:01～14:00,0.0438,0.0388,0.0413,
江東 (Koto),2013-05-25,12:01～13:00,0.0437,0.0389,0.0413,
江東 (Koto),2013-05-25,11:01～12:00,0.0455,0.0384,0.0412,
江東 (Koto),2013-05-25,10:01～11:00,0.0435,0.0393,0.0415,
江東 (Koto),2013-05-25,09:01～10:00,0.0441,0.0388,0.0415,
江東 (Koto),2013-05-25,08:01～09:00,0.0433,0.0392,0.0416,
江東 (Koto),2013-05-25,07:01～08:00,0.0447,0.0393,0.0416,
江東 (Koto),2013-05-25,06:01～07:00,0.0448,0.0394,0.0416,
江東 (Koto),2013-05-25,05:01～06:00,0.0440,0.0385,0.0413,
江東 (Koto),2013-05-25,04:01～05:00,0.0439,0.0386,0.0416,
江東 (Koto),2013-05-25,03:01～04:00,0.0441,0.0386,0.0416,
江東 (Koto),2013-05-25,02:01～03:00,0.0454,0.0389,0.0417,
江東 (Koto),2013-05-25,01:01～02:00,0.0445,0.0390,0.0414,
江東 (Koto),2013-05-25,00:01～01:00,0.0444,0.0397,0.0416,
江東 (Koto),2013-05-24,23:01～24:00,0.0434,0.0391,0.0415,
江東 (Koto),2013-05-24,22:01～23:00,0.0439,0.0395,0.0416,
江東 (Koto),2013-05-24,21:01～22:00,0.0437,0.0395,0.0414,
江東 (Koto),2013-05-24,20:01～21:00,0.0439,0.0388,0.0415,
江東 (Koto),2013-05-24,19:01～20:00,0.0447,0.0386,0.0413,
江東 (Koto),2013-05-24,18:01～19:00,0.0440,0.0391,0.0415,
江東 (Koto),2013-05-24,17:01～18:00,0.0450,0.0393,0.0417,
江東 (Koto),2013-05-24,16:01～17:00,0.0446,0.0383,0.0414,
江東 (Koto),2013-05-24,15:01～16:00,0.0442,0.0387,0.0417,
江東 (Koto),2013-05-24,14:01～15:00,0.0444,0.0391,0.0414,
江東 (Koto),2013-05-24,13:01～14:00,0.0441,0.0394,0.0415,
江東 (Koto),2013-05-24,12:01～13:00,0.0431,0.0396,0.0414,
江東 (Koto),2013-05-24,11:01～12:00,0.0436,0.0385,0.0415,
江東 (Koto),2013-05-24,10:01～11:00,0.0435,0.0388,0.0415,
江東 (Koto),2013-05-24,09:01～10:00,0.0448,0.0390,0.0418,
江東 (Koto),2013-05-24,08:01～09:00,0.0443,0.0395,0.0418,
江東 (Koto),2013-05-24,07:01～08:00,0.0438,0.0389,0.0413,
江東 (Koto),2013-05-24,06:01～07:00,0.0447,0.0393,0.0417,
江東 (Koto),2013-05-24,05:01～06:00,0.0442,0.0393,0.0417,
江東 (Koto),2013-05-24,04:01～05:00,0.0437,0.0389,0.0412,
江東 (Koto),2013-05-24,03:01～04:00,0.0446,0.0396,0.0416,
江東 (Koto),2013-05-24,02:01～03:00,0.0444,0.0386,0.0415,
江東 (Koto),2013-05-24,01:01～02:00,0.0435,0.0386,0.0413,
江東 (Koto),2013-05-24,00:01～01:00,0.0439,0.0391,0.0413,
江東 (Koto),2013-05-23,23:01～24:00,0.0431,0.0390,0.0411,
江東 (Koto),2013-05-23,22:01～23:00,0.0430,0.0395,0.0413,
江東 (Koto),2013-05-23,21:01～22:00,0.0435,0.0387,0.0412,
江東 (Koto),2013-05-23,20:01～21:00,0.0434,0.0390,0.0413,
江東 (Koto),2013-05-23,19:01～20:00,0.0433,0.0388,0.0411,
江東 (Koto),2013-05-23,18:01～19:00,0.0435,0.0389,0.0414,
江東 (Koto),2013-05-23,17:01～18:00,0.0437,0.0395,0.0418,
江東 (Koto),2013-05-23,16:01～17:00,0.0437,0.0388,0.0415,
江東 (Koto),2013-05-23,15:01～16:00,0.0446,0.0387,0.0415,
江東 (Koto),2013-05-23,14:01～15:00,0.0438,0.0394,0.0413,
江東 (Koto),2013-05-23,13:01～14:00,0.0433,0.0391,0.0412,
江東 (Koto),2013-05-23,12:01～13:00,0.0433,0.0379,0.0412,
江東 (Koto),2013-05-23,11:01～12:00,0.0438,0.0383,0.0414,
江東 (Koto),2013-05-23,10:01～11:00,0.0445,0.0391,0.0413,
江東 (Koto),2013-05-23,09:01～10:00,0.0436,0.0385,0.0411,
江東 (Koto),2013-05-23,08:01～09:00,0.0440,0.0391,0.0414,
江東 (Koto),2013-05-23,07:01～08:00,0.0442,0.0391,0.0414,
江東 (Koto),2013-05-23,06:01～07:00,0.0435,0.0379,0.0414,
江東 (Koto),2013-05-23,05:01～06:00,0.0432,0.0386,0.0415,
江東 (Koto),2013-05-23,04:01～05:00,0.0443,0.0388,0.0414,
江東 (Koto),2013-05-23,03:01～04:00,0.0435,0.0396,0.0413,
江東 (Koto),2013-05-23,02:01～03:00,0.0448,0.0390,0.0418,
江東 (Koto),2013-05-23,01:01～02:00,0.0449,0.0391,0.0415,
江東 (Koto),2013-05-23,00:01～01:00,0.0433,0.0394,0.0412,
江東 (Koto),2013-05-22,23:01～24:00,0.0447,0.0395,0.0411,
江東 (Koto),2013-05-22,22:01～23:00,0.0443,0.0388,0.0414,
江東 (Koto),2013-05-22,21:01～22:00,0.0443,0.0383,0.0415,
江東 (Koto),2013-05-22,20:01～21:00,0.0439,0.0386,0.0410,
江東 (Koto),2013-05-22,19:01～20:00,0.0437,0.0392,0.0414,
江東 (Koto),2013-05-22,18:01～19:00,0.0437,0.0382,0.0411,
江東 (Koto),2013-05-22,17:01～18:00,0.0445,0.0392,0.0413,
江東 (Koto),2013-05-22,16:01～17:00,0.0439,0.0390,0.0413,
江東 (Koto),2013-05-22,15:01～16:00,0.0444,0.0388,0.0415,
江東 (Koto),2013-05-22,14:01～15:00,0.0444,0.0384,0.0411,
江東 (Koto),2013-05-22,13:01～14:00,0.0429,0.0387,0.0412,
江東 (Koto),2013-05-22,12:01～13:00,0.0430,0.0378,0.0408,
江東 (Koto),2013-05-22,11:01～12:00,0.0430,0.0382,0.0408,
江東 (Koto),2013-05-22,10:01～11:00,0.0445,0.0390,0.0410,
江東 (Koto),2013-05-22,09:01～10:00,0.0428,0.0391,0.0410,
江東 (Koto),2013-05-22,08:01～09:00,0.0432,0.0378,0.0411,
江東 (Koto),2013-05-22,07:01～08:00,0.0442,0.0390,0.0410,
江東 (Koto),2013-05-22,06:01～07:00,0.0430,0.0388,0.0409,
江東 (Koto),2013-05-22,05:01～06:00,0.0433,0.0390,0.0411,
江東 (Koto),2013-05-22,04:01～05:00,0.0435,0.0385,0.0409,
江東 (Koto),2013-05-22,03:01～04:00,0.0437,0.0386,0.0414,
江東 (Koto),2013-05-22,02:01～03:00,0.0443,0.0389,0.0412,
江東 (Koto),2013-05-22,01:01～02:00,0.0439,0.0386,0.0408,
江東 (Koto),2013-05-22,00:01～01:00,0.0440,0.0393,0.0410,
江東 (Koto),2013-05-21,23:01～24:00,0.0442,0.0383,0.0410,
江東 (Koto),2013-05-21,22:01～23:00,0.0432,0.0389,0.0407,
江東 (Koto),2013-05-21,21:01～22:00,0.0433,0.0384,0.0411,
江東 (Koto),2013-05-21,20:01～21:00,0.0446,0.0390,0.0415,
江東 (Koto),2013-05-21,19:01～20:00,0.0433,0.0380,0.0410,
江東 (Koto),2013-05-21,18:01～19:00,0.0432,0.0383,0.0410,
江東 (Koto),2013-05-21,17:01～18:00,0.0432,0.0383,0.0411,
江東 (Koto),2013-05-21,16:01～17:00,0.0441,0.0391,0.0413,
江東 (Koto),2013-05-21,15:01～16:00,0.0431,0.0388,0.0410,
江東 (Koto),2013-05-21,14:01～15:00,0.0433,0.0386,0.0411,
江東 (Koto),2013-05-21,13:01～14:00,0.0434,0.0384,0.0408,
江東 (Koto),2013-05-21,12:01～13:00,0.0439,0.0387,0.0413,
江東 (Koto),2013-05-21,11:01～12:00,0.0431,0.0386,0.0410,
江東 (Koto),2013-05-21,10:01～11:00,0.0439,0.0378,0.0411,
江東 (Koto),2013-05-21,09:01～10:00,0.0440,0.0391,0.0409,
江東 (Koto),2013-05-21,08:01～09:00,0.0447,0.0386,0.0411,
江東 (Koto),2013-05-21,07:01～08:00,0.0438,0.0391,0.0414,
江東 (Koto),2013-05-21,06:01～07:00,0.0431,0.0385,0.0409,
江東 (Koto),2013-05-21,05:01～06:00,0.0462,0.0376,0.0411,
江東 (Koto),2013-05-21,04:01～05:00,0.0438,0.0386,0.0412,
江東 (Koto),2013-05-21,03:01～04:00,0.0434,0.0390,0.0413,
江東 (Koto),2013-05-21,02:01～03:00,0.0437,0.0390,0.0412,
江東 (Koto),2013-05-21,01:01～02:00,0.0439,0.0392,0.0413,
江東 (Koto),2013-05-21,00:01～01:00,0.0432,0.0383,0.0410,
江東 (Koto),2013-05-20,23:01～24:00,0.0450,0.0388,0.0418,
江東 (Koto),2013-05-20,22:01～23:00,0.0466,0.0407,0.0432,
江東 (Koto),2013-05-20,21:01～22:00,0.0466,0.0412,0.0436,
江東 (Koto),2013-05-20,20:01～21:00,0.0454,0.0399,0.0427,
江東 (Koto),2013-05-20,19:01～20:00,0.0452,0.0403,0.0425,
江東 (Koto),2013-05-20,18:01～19:00,0.0447,0.0399,0.0422,
江東 (Koto),2013-05-20,17:01～18:00,0.0446,0.0393,0.0416,
江東 (Koto),2013-05-20,16:01～17:00,0.0440,0.0396,0.0416,
江東 (Koto),2013-05-20,15:01～16:00,0.0442,0.0389,0.0419,
江東 (Koto),2013-05-20,14:01～15:00,0.0442,0.0402,0.0421,
江東 (Koto),2013-05-20,13:01～14:00,0.0467,0.0411,0.0433,
江東 (Koto),2013-05-20,12:01～13:00,0.0476,0.0422,0.0451,
江東 (Koto),2013-05-20,11:01～12:00,0.0491,0.0431,0.0459,
江東 (Koto),2013-05-20,10:01～11:00,0.0462,0.0394,0.0424,
江東 (Koto),2013-05-20,09:01～10:00,0.0450,0.0392,0.0419,
江東 (Koto),2013-05-20,08:01～09:00,0.0434,0.0391,0.0415,
江東 (Koto),2013-05-20,07:01～08:00,0.0440,0.0392,0.0419,
江東 (Koto),2013-05-20,06:01～07:00,0.0447,0.0394,0.0419,
江東 (Koto),2013-05-20,05:01～06:00,0.0440,0.0388,0.0414,
江東 (Koto),2013-05-20,04:01～05:00,0.0446,0.0399,0.0417,
江東 (Koto),2013-05-20,03:01～04:00,0.0438,0.0379,0.0417,
江東 (Koto),2013-05-20,02:01～03:00,0.0447,0.0386,0.0417,
江東 (Koto),2013-05-20,01:01～02:00,0.0447,0.0392,0.0423,
江東 (Koto),2013-05-20,00:01～01:00,0.0451,0.0402,0.0430,
